TimeCDT,TemperatureF,Dew PointF,Humidity,Sea Level PressureIn,VisibilityMPH,Wind Direction,Wind SpeedMPH,Gust SpeedMPH,PrecipitationIn,Events,Conditions,WindDirDegrees,DateUTC
12:15 AM,28.4,26.6,93,30.51,10.0,ENE,10.4,-,N/A,,Unknown,60,2013-05-03 05:15:00
12:35 AM,26.6,26.6,100,30.51,10.0,ENE,9.2,-,N/A,,Unknown,60,2013-05-03 05:35:00
12:55 AM,26.6,26.6,100,30.50,10.0,ENE,8.1,-,N/A,,Unknown,60,2013-05-03 05:55:00
1:15 AM,26.6,26.6,100,30.50,10.0,ENE,8.1,-,N/A,,Unknown,60,2013-05-03 06:15:00
1:35 AM,26.6,26.6,100,30.49,10.0,ENE,8.1,-,N/A,,Unknown,60,2013-05-03 06:35:00
1:55 AM,24.8,24.8,100,30.49,10.0,NE,5.8,-,N/A,,Unknown,50,2013-05-03 06:55:00
2:15 AM,26.6,26.6,100,30.48,10.0,NE,8.1,-,N/A,,Unknown,50,2013-05-03 07:15:00
2:35 AM,24.8,24.8,100,30.48,10.0,NE,5.8,-,N/A,,Unknown,40,2013-05-03 07:35:00
2:55 AM,24.8,24.8,100,30.47,10.0,NE,6.9,-,N/A,,Unknown,50,2013-05-03 07:55:00
3:15 AM,24.8,24.8,100,30.47,10.0,NNE,4.6,-,N/A,,Unknown,20,2013-05-03 08:15:00
3:35 AM,24.8,24.8,100,30.47,10.0,NNE,3.5,-,N/A,,Unknown,30,2013-05-03 08:35:00
3:55 AM,23.0,23.0,100,30.47,10.0,Calm,Calm,-,N/A,,Unknown,0,2013-05-03 08:55:00
4:15 AM,23.0,23.0,100,30.47,8.0,North,3.5,-,N/A,,Unknown,350,2013-05-03 09:15:00
4:35 AM,23.0,23.0,100,30.46,10.0,Calm,Calm,-,N/A,,Unknown,0,2013-05-03 09:35:00
4:55 AM,23.0,23.0,100,30.46,10.0,NW,3.5,-,N/A,,Unknown,320,2013-05-03 09:55:00
5:15 AM,23.0,23.0,100,30.46,10.0,NNW,4.6,-,N/A,,Unknown,340,2013-05-03 10:15:00
5:35 AM,23.0,23.0,100,30.46,10.0,North,4.6,-,N/A,,Unknown,350,2013-05-03 10:35:00
5:55 AM,23.0,23.0,100,30.46,10.0,North,5.8,-,N/A,,Unknown,350,2013-05-03 10:55:00
6:15 AM,23.0,23.0,100,30.45,9.0,North,4.6,-,N/A,,Unknown,360,2013-05-03 11:15:00
6:35 AM,23.0,23.0,100,30.45,9.0,North,5.8,-,N/A,,Unknown,10,2013-05-03 11:35:00
6:55 AM,24.8,24.8,100,30.44,9.0,North,5.8,-,N/A,,Unknown,10,2013-05-03 11:55:00
7:15 AM,24.8,24.8,100,30.45,8.0,North,5.8,-,N/A,,Unknown,10,2013-05-03 12:15:00
7:35 AM,26.6,26.6,100,30.45,10.0,North,5.8,-,N/A,,Unknown,10,2013-05-03 12:35:00
7:55 AM,26.6,26.6,100,30.45,10.0,North,5.8,-,N/A,,Unknown,10,2013-05-03 12:55:00
8:15 AM,28.4,28.4,100,30.45,10.0,NNE,6.9,-,N/A,,Unknown,20,2013-05-03 13:15:00
8:35 AM,30.2,28.4,93,30.44,10.0,North,5.8,-,N/A,,Unknown,10,2013-05-03 13:35:00
8:55 AM,32.0,26.6,80,30.44,10.0,NE,6.9,-,N/A,,Unknown,50,2013-05-03 13:55:00
9:15 AM,32.0,24.8,75,30.43,10.0,NNE,9.2,-,N/A,,Unknown,30,2013-05-03 14:15:00
9:35 AM,32.0,24.8,75,30.42,10.0,NNE,6.9,-,N/A,,Unknown,30,2013-05-03 14:35:00
9:55 AM,32.0,24.8,75,30.41,10.0,NNE,8.1,-,N/A,,Unknown,20,2013-05-03 14:55:00
10:15 AM,35.6,24.8,65,30.40,10.0,NNE,8.1,-,N/A,,Unknown,30,2013-05-03 15:15:00
10:35 AM,35.6,24.8,65,30.40,10.0,NE,9.2,-,N/A,,Unknown,40,2013-05-03 15:35:00
10:55 AM,37.4,24.8,60,30.40,10.0,NNW,9.2,-,N/A,,Unknown,340,2013-05-03 15:55:00
11:15 AM,37.4,24.8,60,30.39,10.0,North,8.1,-,N/A,,Unknown,10,2013-05-03 16:15:00
11:35 AM,39.2,24.8,56,30.38,10.0,NNE,9.2,-,N/A,,Unknown,20,2013-05-03 16:35:00
11:55 AM,39.2,24.8,56,30.37,10.0,North,8.1,18.4,N/A,,Unknown,360,2013-05-03 16:55:00
12:15 PM,41.0,24.8,53,30.36,10.0,NNE,13.8,18.4,N/A,,Unknown,20,2013-05-03 17:15:00
12:35 PM,42.8,24.8,49,30.36,10.0,NE,12.7,21.9,N/A,,Unknown,40,2013-05-03 17:35:00
12:55 PM,42.8,24.8,49,30.34,10.0,North,15.0,23.0,N/A,,Unknown,360,2013-05-03 17:55:00
1:15 PM,44.6,24.8,46,30.33,10.0,NNE,9.2,19.6,N/A,,Unknown,30,2013-05-03 18:15:00
1:35 PM,44.6,24.8,46,30.32,10.0,NNE,12.7,19.6,N/A,,Unknown,30,2013-05-03 18:35:00
1:55 PM,46.4,24.8,43,30.31,10.0,North,12.7,20.7,N/A,,Unknown,10,2013-05-03 18:55:00
2:15 PM,46.4,24.8,43,30.30,10.0,NNE,12.7,20.7,N/A,,Unknown,30,2013-05-03 19:15:00
2:35 PM,46.4,24.8,43,30.30,10.0,NE,17.3,23.0,N/A,,Unknown,40,2013-05-03 19:35:00
2:55 PM,46.4,24.8,43,30.29,10.0,NE,17.3,24.2,N/A,,Unknown,40,2013-05-03 19:55:00
3:15 PM,48.2,24.8,40,30.28,10.0,NNE,16.1,23.0,N/A,,Unknown,30,2013-05-03 20:15:00
3:35 PM,48.2,24.8,40,30.28,10.0,NNE,15.0,19.6,N/A,,Unknown,20,2013-05-03 20:35:00
3:55 PM,48.2,24.8,40,30.27,10.0,NNE,13.8,-,N/A,,Unknown,20,2013-05-03 20:55:00
4:15 PM,48.2,24.8,40,30.27,10.0,NNE,15.0,18.4,N/A,,Unknown,20,2013-05-03 21:15:00
4:35 PM,48.2,23.0,37,30.25,10.0,NNE,15.0,24.2,N/A,,Unknown,30,2013-05-03 21:35:00
4:55 PM,48.2,24.8,40,30.25,10.0,NNE,16.1,21.9,N/A,,Unknown,20,2013-05-03 21:55:00
5:15 PM,48.2,24.8,40,30.25,10.0,NNE,13.8,20.7,N/A,,Unknown,30,2013-05-03 22:15:00
5:35 PM,48.2,24.8,40,30.25,10.0,NNE,17.3,23.0,N/A,,Unknown,30,2013-05-03 22:35:00
5:55 PM,50.0,23.0,35,30.25,10.0,NNE,13.8,20.7,N/A,,Unknown,30,2013-05-03 22:55:00
6:15 PM,48.2,24.8,40,30.24,10.0,NNE,17.3,23.0,N/A,,Unknown,30,2013-05-03 23:15:00
6:35 PM,48.2,24.8,40,30.24,10.0,NNE,17.3,23.0,N/A,,Unknown,20,2013-05-03 23:35:00
6:55 PM,48.2,26.6,43,30.24,10.0,NNE,15.0,-,N/A,,Unknown,30,2013-05-03 23:55:00
7:15 PM,48.2,26.6,43,30.24,10.0,NNE,15.0,-,N/A,,Unknown,20,2013-05-04 00:15:00
7:35 PM,48.2,28.4,46,30.24,10.0,NNE,16.1,20.7,N/A,,Unknown,20,2013-05-04 00:35:00
7:55 PM,46.4,28.4,50,30.24,10.0,NNE,15.0,-,N/A,,Unknown,30,2013-05-04 00:55:00
8:15 PM,46.4,28.4,50,30.25,10.0,NNE,13.8,-,N/A,,Unknown,30,2013-05-04 01:15:00
8:35 PM,44.6,28.4,53,30.25,10.0,NNE,12.7,-,N/A,,Unknown,20,2013-05-04 01:35:00
8:55 PM,44.6,28.4,53,30.24,10.0,NNE,12.7,-,N/A,,Unknown,20,2013-05-04 01:55:00
9:15 PM,41.0,30.2,65,30.25,10.0,North,10.4,-,N/A,,Unknown,10,2013-05-04 02:15:00
9:35 PM,41.0,30.2,65,30.25,10.0,North,8.1,-,N/A,,Unknown,360,2013-05-04 02:35:00
9:55 PM,39.2,30.2,70,30.25,10.0,North,9.2,-,N/A,,Unknown,360,2013-05-04 02:55:00
10:15 PM,37.4,30.2,75,30.25,10.0,North,9.2,-,N/A,,Unknown,360,2013-05-04 03:15:00
10:35 PM,39.2,32.0,75,30.25,10.0,North,9.2,-,N/A,,Unknown,350,2013-05-04 03:35:00
10:55 PM,39.2,32.0,75,30.25,10.0,North,10.4,-,N/A,,Unknown,360,2013-05-04 03:55:00
11:15 PM,37.4,32.0,81,30.25,10.0,North,11.5,-,N/A,,Unknown,350,2013-05-04 04:15:00
11:35 PM,37.4,32.0,81,30.25,10.0,NNW,9.2,-,N/A,,Unknown,340,2013-05-04 04:35:00
11:55 PM,37.4,32.0,81,30.25,10.0,North,10.4,-,N/A,,Unknown,350,2013-05-04 04:55:00